Hourly Weather Roundup
Issued by NWS Central Illinois

Home | Current Version | Previous Version | Text Only | Print | Product List | Glossary On
Versions: 1 2 3 4 5 6 7 8 9 10 11 12 13 14 15 16 17 18 19 20 21 22 23 24 25 26 27 28 29 30 31 32 33 34 35 36 37 38 39 40 41 42 43 44 45 46 47 48 49 50
000
NZUS43 KILX 201510
HWRILX

AREA WEATHER ROUNDUP
NATIONAL WEATHER SERVICE, LINCOLN IL
1000 AM CDT MON OCT 20 2014


CITY           SKY/WX    TMP DP  RH WIND       PRES   REMARKS
BLOOMINGTON    SUNNY     57  48  72 NW15      29.92R
CHAMPAIGN      SUNNY     59  50  72 MISG      29.91R
DECATUR        SUNNY     60  51  72 W12       29.94R
FLORA          MOSUNNY   60  49  68 W10G17    29.97S
GALESBURG      SUNNY     56  46  71 NW10      29.94S
JACKSONVILLE   SUNNY     62  49  63 NW10      29.96R
LACON          SUNNY     56  46  67 NW8       29.91R
LAWRENCEVILLE  PTSUNNY   57  49  74 SW12      29.97F
LITCHFIELD     SUNNY     60  50  68 W12G18    29.96S
$$


CITY           SKY/WX    TMP DP  RH WIND       PRES   REMARKS
LINCOLN        SUNNY     59  48  66 NW8       29.92R
MACOMB         SUNNY     57  47  69 NW12      29.99R
MATTOON        MOSUNNY   59  50  72 SW9       29.92S
MT CARMEL AP   PTSUNNY   59  50  72 SW12      29.97F
OLNEY-NOBLE AP PTSUNNY   59  50  72 S7        29.97S
PARIS          MOSUNNY   60  51  74 W12       29.92S
PEORIA         SUNNY     58  45  62 NW9       29.93R
PONTIAC        SUNNY     57  48  72 W14       29.88S
RANTOUL        MOSUNNY   59  48  65 W13G20    29.90S
ROBINSON       PTSUNNY   60  51  73 SW12      29.96S
SPRINGFIELD    SUNNY     62  49  62 W9        29.96R
TAYLORVILLE    SUNNY     61  50  67 W13       29.94R
$$

...REGIONAL REPORTS...


CITY           SKY/WX    TMP DP  RH WIND       PRES   REMARKS
CHICAGO O`HARE MOSUNNY   54  45  71 NW10      29.84R
KANKAKEE       NOT AVBL
MOLINE         SUNNY     56  45  66 N14       29.94R
MOUNT VERNON   PTSUNNY   61  48  63 SW10      29.99F
PITTSFIELD     SUNNY     61  49  65 NW8       29.99R
QUINCY         SUNNY     58  48  69 N10       29.99R
ROCKFORD       MOSUNNY   55  45  68 N14       29.90R
$$


CITY           SKY/WX    TMP DP  RH WIND       PRES   REMARKS
BURLINGTON     SUNNY     58  46  64 NW10      29.97R
CEDAR RAPIDS   SUNNY     53  46  77 NW12      29.98R
DES MOINES     SUNNY     56  45  66 NW3       30.05R
KIRKSVILLE     SUNNY     59  48  67 N10       30.04R
OTTUMWA        SUNNY     56  45  66 N12       30.02R
ST LOUIS       SUNNY     64  53  67 W12       29.99S
$$


CITY           SKY/WX    TMP DP  RH WIND       PRES   REMARKS
TERRE HAUTE    MOSUNNY   57  48  72 SW13      29.93F
EVANSVILLE     PTSUNNY   57  48  72 S9        30.01F
INDIANAPOLIS   PTSUNNY   55  47  74 SW17      29.91F
LAFAYETTE      PTSUNNY   53  48  83 SW10      29.88R
MADISON        SUNNY     54  43  66 N14       29.90R
MILWAUKEE      PTSUNNY   53  45  74 NW10      29.84R
$$





USA.gov is the U.S. government's official web portal to all federal, state and local government web resources and services.